EW2692 Weather Reports


Display with metric or nautical units.
time (UTC)temp
F
wind
direction
speed
MPH
gust
MPH
rain 1hr
in
rain 24hr
in
rain mn
in
humidity
%
barometer
mb
20260510093011 36 309 0.0 0.0 0.00 0.00 0.00 59 947.3
20260510091511 37 309 0.0 0.0 0.00 0.00 0.00 57 947.2
20260510090006 38 309 0.0 0.0 0.00 0.00 0.00 56 947.2
20260510084503 39 309 0.0 1.0 0.00 0.00 0.00 55 947.1
20260510083100 40 309 0.0 0.0 0.00 0.00 0.00 54 947.1
20260510081559 40 309 0.0 1.0 0.00 0.00 0.00 52 947.0
20260510080100 40 309 0.0 0.0 0.00 0.00 0.00 52 947.0
20260510074557 40 309 0.0 1.0 0.00 0.00 0.00 53 947.0
20260510073105 42 309 0.0 1.0 0.00 0.00 0.00 50 947.0
20260510071557 43 310 0.0 1.0 0.00 0.00 0.00 49 947.0
20260510070047 43 310 0.0 2.0 0.00 0.00 0.00 50 947.0
20260510064553 44 310 0.0 0.0 0.00 0.00 0.00 46 946.8
20260510063045 45 310 0.0 2.0 0.00 0.00 0.00 45 946.7
20260510061539 45 310 0.0 0.0 0.00 0.00 0.00 47 946.6
20260510060036 46 310 0.0 0.0 0.00 0.00 0.00 45 946.6
20260510054535 46 310 0.0 0.0 0.00 0.00 0.00 45 946.5
20260510053036 46 310 0.0 0.0 0.00 0.00 0.00 44 946.4
20260510051534 46 310 0.0 1.0 0.00 0.00 0.00 45 946.2
20260510050031 46 310 0.0 2.0 0.00 0.00 0.00 44 946.2
20260510044538 46 310 0.0 2.0 0.00 0.00 0.00 43 945.8
20260510043027 47 310 0.0 2.0 0.00 0.00 0.00 42 945.6
20260510041525 48 310 0.0 1.0 0.00 0.00 0.00 42 945.5
20260510040028 49 310 0.0 3.0 0.00 0.00 0.00 41 945.3
20260510034531 49 310 0.0 3.0 0.00 0.00 0.00 44 945.1
20260510033018 50 310 0.0 3.0 0.00 0.00 0.00 40 944.9
20260510031519 50 310 0.0 2.0 0.00 0.00 0.00 37 944.7
20260510030015 51 310 0.0 3.0 0.00 0.00 0.00 36 944.4
20260510024515 52 310 0.0 3.0 0.00 0.00 0.00 35 944.2
20260510023010 54 310 0.0 2.0 0.00 0.00 0.00 32 943.9
20260510021521 56 310 1.0 6.0 0.00 0.00 0.00 30 943.8
20260510020009 57 324 2.0 5.0 0.00 0.00 0.00 29 943.6
20260510014508 58 308 2.0 9.0 0.00 0.00 0.00 29 943.5
20260510013006 59 329 3.0 8.0 0.00 0.00 0.00 29 943.4
20260510011506 60 317 3.0 11.0 0.00 0.00 0.00 29 943.3
20260510010007 61 304 3.0 12.0 0.00 0.00 0.00 30 943.3
20260510004505 62 302 4.0 12.0 0.00 0.00 0.00 30 943.1
20260510003004 62 322 7.0 13.0 0.00 0.00 0.00 29 943.0
20260510001503 63 301 6.0 11.0 0.00 0.00 0.00 29 943.0
20260510000006 63 303 9.0 14.0 0.00 0.00 0.00 29 943.0
20260509234501 63 305 7.0 16.0 0.00 0.00 0.00 29 942.9
20260509233100 63 295 9.0 14.0 0.00 0.00 0.00 29 942.8
20260509231600 63 293 8.0 18.0 0.00 0.00 0.00 30 942.9
20260509230059 64 288 8.0 16.0 0.00 0.00 0.00 29 942.8
20260509224602 64 298 6.0 18.0 0.00 0.00 0.00 28 942.7
20260509223106 63 286 4.0 14.0 0.00 0.00 0.00 29 942.7
20260509221606 64 317 6.0 15.0 0.00 0.00 0.00 30 942.8
20260509220057 64 303 8.0 18.0 0.00 0.00 0.00 30 942.8
20260509214604 64 300 9.0 16.0 0.00 0.00 0.00 30 942.9
20260509213055 64 301 8.0 15.0 0.00 0.00 0.00 30 943.0
20260509211558 63 296 9.0 15.0 0.00 0.00 0.00 30 943.0
20260509210112 61 283 9.0 16.0 0.00 0.00 0.00 31 943.1
20260509204557 62 306 9.0 16.0 0.00 0.00 0.00 31 943.2
20260509203050 63 302 9.0 17.0 0.00 0.00 0.00 32 943.1
20260509201556 62 299 8.0 15.0 0.00 0.00 0.00 32 943.2
20260509200057 61 307 5.0 15.0 0.00 0.00 0.00 33 943.2
20260509194545 61 309 7.0 16.0 0.00 0.00 0.00 33 943.3
20260509193044 61 292 8.0 17.0 0.00 0.00 0.00 34 943.4
20260509191541 60 301 9.0 16.0 0.00 0.00 0.00 35 943.4
20260509190043 59 301 5.0 14.0 0.00 0.00 0.00 36 943.5
20260509184536 58 281 8.0 16.0 0.00 0.00 0.00 37 943.4
20260509183035 58 313 5.0 16.0 0.00 0.00 0.00 39 943.5
20260509181538 58 290 8.0 15.0 0.00 0.00 0.00 40 943.6
20260509180030 57 294 3.0 12.0 0.00 0.00 0.00 42 943.5
20260509174528 56 282 3.0 9.0 0.00 0.00 0.00 42 943.7
20260509173025 55 278 7.0 12.0 0.00 0.00 0.00 43 943.7
20260509171534 54 294 3.0 9.0 0.00 0.00 0.00 44 943.6
20260509170028 54 306 3.0 10.0 0.00 0.00 0.00 46 943.5
20260509164518 52 275 3.0 10.0 0.00 0.00 0.00 50 943.7
20260509163015 51 318 3.0 11.0 0.00 0.00 0.00 51 943.7
20260509161513 51 276 5.0 9.0 0.00 0.00 0.00 52 943.8
20260509160011 50 278 3.0 9.0 0.00 0.00 0.00 53 943.7
20260509154512 49 277 3.0 9.0 0.00 0.00 0.00 56 943.8
20260509153005 47 289 3.0 9.0 0.00 0.00 0.00 58 943.8
20260509151504 47 293 3.0 7.0 0.00 0.00 0.00 59 943.8
20260509150007 46 292 1.0 4.0 0.00 0.00 0.00 62 943.8
20260509144600 45 292 2.0 4.0 0.00 0.00 0.00 66 943.7
20260509143059 43 300 0.0 4.0 0.00 0.00 0.00 71 943.7
20260509141557 42 305 0.0 2.0 0.00 0.00 0.00 71 943.6
20260509134625 40 314 0.0 3.0 0.00 0.00 0.00 79 943.4
20260509133056 38 312 1.0 3.0 0.00 0.00 0.00 82 943.2
20260509131553 37 347 0.0 2.0 0.00 0.00 0.00 84 943.1
20260509130048 35 350 0.0 2.0 0.00 0.00 0.00 86 942.9
20260509124546 34 351 0.0 1.0 0.00 0.00 0.00 86 942.7
20260509123044 33 355 0.0 1.0 0.00 0.00 0.00 86 942.5
20260509121546 34 355 0.0 1.0 0.00 0.00 0.00 85 942.3
20260509120043 34 360 0.0 1.0 0.00 0.00 0.00 87 942.0
20260509114543 33 5 0.0 1.0 0.00 0.00 0.00 88 941.7
20260509113034 33 5 0.0 1.0 0.00 0.00 0.00 88 941.4
20260509111533 33 5 0.0 0.0 0.00 0.00 0.00 88 941.2
20260509110030 33 5 0.0 1.0 0.00 0.00 0.00 88 941.0
20260509104528 34 5 0.0 1.0 0.00 0.00 0.00 89 940.8
20260509103025 34 22 0.0 0.0 0.00 0.00 0.00 89 940.7
20260509101534 34 22 0.0 0.0 0.00 0.00 0.00 89 940.6
20260509100025 34 22 0.0 1.0 0.00 0.00 0.00 88 940.5
20260509094522 34 22 0.0 0.0 0.00 0.00 0.00 88 940.3